When you browse on this site, cookies collect data to enhance your experience and personalize the content and advertising you see.
Visit our Privacy Policy to learn more. By continuing to use the site, you agree to this use of cookies and data.
  • En España
  • Lista de países
  • Para 7 días
  • Temperatura del agua
  • El tiempo en el mapa
  • Informadores
  • user-avatar
    Iniciar sesión

    Tiempo cada hora San Antonio

    Hoy, 19 Enero, Domingo

    Tiempo Temperatura Precipitaciones Viento Presión Humedad
    00:00 +16°C° 0 mm 1 mps 757 mmHg 91%
    01:00 +16°C° 0 mm 1 mps 757 mmHg 92%
    02:00 +16°C° 0 mm 1 mps 757 mmHg 91%
    03:00 +16°C° 0 mm 1 mps 757 mmHg 90%
    04:00 +16°C° 0 mm 1 mps 757 mmHg 90%
    05:00 +18°C° 0 mm 1 mps 757 mmHg 83%
    06:00 +19°C° 0 mm 2 mps 757 mmHg 77%
    07:00 +20°C° 0 mm 2 mps 758 mmHg 70%
    08:00 +22°C° 0 mm 3 mps 758 mmHg 66%
    09:00 +24°C° 0 mm 3 mps 758 mmHg 63%
    10:00 +26°C° 0 mm 4 mps 759 mmHg 59%
    11:00 +26°C° 0 mm 5 mps 759 mmHg 56%
    12:00 +27°C° 0 mm 6 mps 759 mmHg 54%
    13:00 +28°C° 0 mm 6 mps 759 mmHg 51%
    14:00 +27°C° 0 mm 6 mps 759 mmHg 53%
    15:00 +26°C° 0 mm 5 mps 759 mmHg 56%
    16:00 +25°C° 0 mm 5 mps 759 mmHg 58%
    17:00 +22°C° 0 mm 4 mps 759 mmHg 69%
    18:00 +20°C° 0 mm 3 mps 759 mmHg 81%
    19:00 +17°C° 0 mm 2 mps 759 mmHg 92%
    20:00 +17°C° 0 mm 2 mps 759 mmHg 93%
    21:00 +18°C° 0 mm 1 mps 760 mmHg 94%
    22:00 +16°C° 0 mm 1 mps 760 mmHg 94%
    23:00 +16°C° 0 mm 1 mps 759 mmHg 94%

    Mañana, 20 Enero, Lunes

    Tiempo Temperatura Precipitaciones Viento Presión Humedad
    00:00 +16°C° 0 mm 1 mps 759 mmHg 94%
    01:00 +16°C° 0 mm 1 mps 759 mmHg 94%
    02:00 +16°C° 0 mm 1 mps 759 mmHg 94%
    03:00 +16°C° 0 mm 1 mps 758 mmHg 94%
    04:00 +15°C° 0 mm 1 mps 758 mmHg 94%
    05:00 +18°C° 0 mm 1 mps 758 mmHg 86%
    06:00 +19°C° 0 mm 1 mps 759 mmHg 79%
    07:00 +19°C° 0 mm 0 mps 759 mmHg 72%
    08:00 +23°C° 0 mm 1 mps 759 mmHg 65%
    09:00 +25°C° 0 mm 2 mps 759 mmHg 58%
    10:00 +27°C° 0 mm 3 mps 759 mmHg 51%
    11:00 +27°C° 0 mm 4 mps 759 mmHg 49%
    12:00 +28°C° 0 mm 4 mps 759 mmHg 48%
    13:00 +28°C° 0 mm 4 mps 759 mmHg 46%
    14:00 +27°C° 0 mm 4 mps 759 mmHg 49%
    15:00 +26°C° 0 mm 4 mps 759 mmHg 51%
    16:00 +25°C° 0 mm 3 mps 758 mmHg 53%
    17:00 +22°C° 0 mm 3 mps 759 mmHg 63%
    18:00 +20°C° 0 mm 2 mps 759 mmHg 72%
    19:00 +19°C° 0 mm 1 mps 759 mmHg 82%
    20:00 +18°C° 0 mm 1 mps 759 mmHg 84%
    21:00 +16°C° 0 mm 1 mps 759 mmHg 87%
    22:00 +14°C° 0 mm 0 mps 759 mmHg 90%
    23:00 +14°C° 0 mm 0 mps 759 mmHg 89%

    Pasado mañana, 21 Enero, Martes

    Tiempo Temperatura Precipitaciones Viento Presión Humedad
    00:00 +15°C° 0 mm 1 mps 759 mmHg 88%
    01:00 +15°C° 0 mm 1 mps 759 mmHg 87%
    02:00 +14°C° 0 mm 0 mps 758 mmHg 88%
    03:00 +13°C° 0 mm 0 mps 758 mmHg 88%
    04:00 +13°C° 0 mm 0 mps 758 mmHg 89%
    05:00 +15°C° 0 mm 0 mps 758 mmHg 81%
    06:00 +17°C° 0 mm 0 mps 758 mmHg 73%
    07:00 +19°C° 0 mm 0 mps 758 mmHg 65%
    08:00 +23°C° 0 mm 1 mps 758 mmHg 58%
    09:00 +25°C° 0 mm 2 mps 758 mmHg 52%
    10:00 +27°C° 0 mm 3 mps 758 mmHg 45%
    11:00 +27°C° 0 mm 4 mps 758 mmHg 45%
    12:00 +28°C° 0 mm 4 mps 758 mmHg 44%
    13:00 +28°C° 0 mm 5 mps 758 mmHg 44%
    14:00 +27°C° 0 mm 5 mps 758 mmHg 47%
    15:00 +26°C° 0 mm 5 mps 758 mmHg 50%
    16:00 +25°C° 0 mm 4 mps 758 mmHg 52%
    17:00 +22°C° 0 mm 3 mps 758 mmHg 64%
    18:00 +19°C° 0 mm 3 mps 758 mmHg 75%
    19:00 +17°C° 0 mm 2 mps 759 mmHg 86%
    20:00 +16°C° 0 mm 1 mps 759 mmHg 88%
    21:00 +15°C° 0 mm 1 mps 759 mmHg 90%
    22:00 +15°C° 0 mm 1 mps 759 mmHg 92%
    23:00 +15°C° 0 mm 1 mps 759 mmHg 91%

    22 Enero, Miércoles

    Tiempo Temperatura Precipitaciones Viento Presión Humedad
    00:00 +14°C° 0 mm 1 mps 758 mmHg 91%
    01:00 +14°C° 0 mm 2 mps 758 mmHg 91%
    02:00 +14°C° 0 mm 2 mps 758 mmHg 91%
    03:00 +14°C° 0 mm 2 mps 758 mmHg 91%
    04:00 +14°C° 0 mm 2 mps 758 mmHg 91%
    05:00 +15°C° 0 mm 2 mps 758 mmHg 85%
    06:00 +17°C° 0 mm 2 mps 758 mmHg 78%
    07:00 +19°C° 0 mm 2 mps 758 mmHg 72%
    08:00 +21°C° 0 mm 3 mps 758 mmHg 65%
    09:00 +23°C° 0 mm 4 mps 759 mmHg 59%
    10:00 +26°C° 0 mm 6 mps 759 mmHg 52%
    11:00 +26°C° 0 mm 6 mps 759 mmHg 51%
    12:00 +27°C° 0 mm 6 mps 759 mmHg 50%
    13:00 +27°C° 0 mm 6 mps 758 mmHg 49%
    14:00 +26°C° 0 mm 6 mps 758 mmHg 51%
    15:00 +26°C° 0 mm 5 mps 758 mmHg 54%
    16:00 +25°C° 0 mm 5 mps 758 mmHg 56%
    17:00 +21°C° 0 mm 4 mps 758 mmHg 67%
    18:00 +19°C° 0 mm 2 mps 759 mmHg 78%
    19:00 +16°C° 0 mm 1 mps 759 mmHg 89%
    20:00 +16°C° 0 mm 1 mps 759 mmHg 91%
    21:00 +15°C° 0 mm 1 mps 759 mmHg 92%
    22:00 +15°C° 0 mm 1 mps 759 mmHg 93%
    23:00 +15°C° 0 mm 1 mps 759 mmHg 93%

    23 Enero, Jueves

    Tiempo Temperatura Precipitaciones Viento Presión Humedad
    00:00 +15°C° 0 mm 1 mps 759 mmHg 93%
    01:00 +15°C° 0 mm 1 mps 759 mmHg 94%
    02:00 +15°C° 0 mm 1 mps 759 mmHg 93%
    03:00 +14°C° 0 mm 1 mps 759 mmHg 93%
    04:00 +14°C° 0 mm 1 mps 760 mmHg 93%
    05:00 +16°C° 0 mm 1 mps 760 mmHg 87%
    06:00 +18°C° 0 mm 1 mps 761 mmHg 80%
    07:00 +20°C° 0 mm 1 mps 761 mmHg 74%
    08:00 +21°C° 0 mm 3 mps 761 mmHg 68%
    09:00 +22°C° 0 mm 4 mps 762 mmHg 62%
    10:00 +25°C° 0 mm 5 mps 762 mmHg 56%
    11:00 +25°C° 0 mm 5 mps 762 mmHg 55%
    12:00 +26°C° 0 mm 6 mps 762 mmHg 54%
    13:00 +26°C° 0 mm 6 mps 762 mmHg 53%
    14:00 +25°C° 0 mm 5 mps 761 mmHg 55%
    15:00 +25°C° 0 mm 4 mps 761 mmHg 58%
    16:00 +24°C° 0 mm 3 mps 761 mmHg 60%
    17:00 +21°C° 0 mm 3 mps 761 mmHg 70%
    18:00 +19°C° 0 mm 2 mps 761 mmHg 80%
    19:00 +18°C° 0 mm 1 mps 761 mmHg 90%
    20:00 +16°C° 0 mm 1 mps 761 mmHg 92%
    21:00 +15°C° 0 mm 1 mps 762 mmHg 94%
    22:00 +15°C° 0 mm 1 mps 762 mmHg 95%
    23:00 +15°C° 0 mm 1 mps 761 mmHg 95%

    24 Enero, Viernes

    Tiempo Temperatura Precipitaciones Viento Presión Humedad
    00:00 +15°C° 0 mm 1 mps 761 mmHg 94%
    01:00 +15°C° 0 mm 1 mps 761 mmHg 94%
    02:00 +15°C° 0 mm 1 mps 761 mmHg 93%
    03:00 +14°C° 0 mm 0 mps 761 mmHg 93%
    04:00 +13°C° 0 mm 0 mps 761 mmHg 92%
    05:00 +15°C° 0 mm 0 mps 761 mmHg 85%
    06:00 +17°C° 0 mm 0 mps 761 mmHg 77%
    07:00 +18°C° 0 mm 0 mps 761 mmHg 70%
    08:00 +22°C° 0 mm 1 mps 761 mmHg 62%
    09:00 +25°C° 0 mm 2 mps 761 mmHg 55%
    10:00 +27°C° 0 mm 3 mps 761 mmHg 47%
    11:00 +27°C° 0 mm 4 mps 761 mmHg 47%
    12:00 +27°C° 0 mm 4 mps 761 mmHg 46%
    13:00 +28°C° 0 mm 5 mps 761 mmHg 46%
    14:00 +27°C° 0 mm 5 mps 761 mmHg 48%
    15:00 +26°C° 0 mm 4 mps 760 mmHg 51%
    16:00 +25°C° 0 mm 3 mps 760 mmHg 53%
    17:00 +22°C° 0 mm 3 mps 760 mmHg 63%
    18:00 +19°C° 0 mm 2 mps 761 mmHg 73%
    19:00 +17°C° 0 mm 2 mps 761 mmHg 83%
    20:00 +16°C° 0 mm 2 mps 761 mmHg 85%
    21:00 +16°C° 0 mm 1 mps 761 mmHg 86%
    22:00 +15°C° 0 mm 1 mps 761 mmHg 88%
    23:00 +15°C° 0 mm 1 mps 761 mmHg 87%
    Mostrar más